This demonstration page uses our WeatherBlox Daily Observations layout. Learn more.

Left ArrowRight Arrow

Hourly Observations for January 10, 2020

Temp ( °F °C ) Dew Point ( °F °C ) Humidity (%) Winds ( mph kmh ) Pressure ( in mb ) Visibility ( mi km ) Precip ( " mm )
12:53 am 00:53 Cloudy 55 12.8 30 -1.1 38 38 S 6 9 30.20 1023 10 16 0.00 0.00
1:53 am 01:53 Cloudy 55 12.8 34 1.1 45 45 S 9 15 30.20 1023 10 16 0.00 0.00
2:53 am 02:53 Cloudy with Light Rain 55 12.8 37 2.8 51 51 SSW 7 11 30.22 1023 10 16 0.00 0.00
3:53 am 03:53 Cloudy with Light Rain 49 9.4 45 7.2 86 86 Calm 30.24 1024 9 14 0.09 2.29
4:53 am 04:53 Cloudy with Rain 48 8.9 46 7.8 93 93 Calm 30.24 1024 5 8 0.05 1.27
5:53 am 05:53 Cloudy with Light Rain 47 8.3 46 7.8 97 97 E 3 6 30.24 1024 6 10 0.11 2.79
6:53 am 06:53 Cloudy with Light Rain 48 8.9 47 8.3 96 96 Calm 30.24 1024 6 10 0.03 0.76
7:53 am 07:53 Cloudy with Light Rain 49 9.4 48 8.9 97 97 Calm 30.25 1025 8 13 0.03 0.76
8:53 am 08:53 Cloudy with Light Rain 50 10 47 8.3 89 89 S 6 9 30.25 1025 6 10 0.08 2.03
9:41 am 09:41 Cloudy with Rain 51 10.6 49 9.4 92 92 S 6 9 30.28 1025 3 4 0.09 2.29
9:53 am 09:53 Cloudy with Light Rain 51 10.6 49 9.4 92 92 VRB 5 7 30.27 1025 4 6 0.11 2.79
10:20 am 10:20 Cloudy with Rain 52 11.1 49 9.4 89 89 S 7 11 30.27 1025 3 4 0.08 2.03
10:30 am 10:30 Cloudy with Light Rain 52 11.1 49 9.4 89 89 VRB 5 7 30.27 1025 4 6 0.10 2.54
10:53 am 10:53 Cloudy with Light Rain 52 11.1 49 9.4 89 89 VRB 6 9 30.26 1025 10 16 0.11 2.79
11:53 am 11:53 Cloudy with Light Rain 53 11.7 50 10 89 89 VRB 3 6 30.24 1024 8 13 0.00 0.00
12:53 pm 12:53 Cloudy with Light Rain 54 12.2 51 10.6 90 90 S 5 7 30.21 1023 5 8 0.02 0.51
1:53 pm 13:53 Cloudy 57 13.9 52 11.1 83 83 Calm 30.18 1022 10 16 0.03 0.76
2:53 pm 14:53 Cloudy with Light Rain 57 13.9 52 11.1 83 83 S 5 7 30.17 1022 10 16 0.00 0.00
3:53 pm 15:53 Cloudy 59 15 53 11.7 81 81 Calm 30.17 1022 10 16 0.00 0.00
4:53 pm 16:53 Cloudy with Light Rain 58 14.4 53 11.7 84 84 Calm 30.17 1022 5 8 0.01 0.25
5:53 pm 17:53 Cloudy with Light Rain 56 13.3 54 12.2 93 93 Calm 30.17 1022 6 10 0.05 1.27
6:53 pm 18:53 Cloudy with Light Rain 54 12.2 53 11.7 97 97 Calm 30.17 1022 7 11 0.03 0.76
7:53 pm 19:53 Cloudy with Light Rain 57 13.9 54 12.2 90 90 S 7 11 30.15 1021 8 13 0.07 1.78
8:53 pm 20:53 Cloudy with Light Rain 56 13.3 54 12.2 93 93 VRB 5 7 30.11 1020 8 13 0.04 1.02
9:53 pm 21:53 Mostly Cloudy 57 13.9 54 12.2 90 90 S 8 13 30.08 1019 10 16 0.02 0.51
10:53 pm 22:53 Cloudy with Light Rain 56 13.3 54 12.2 93 93 Calm 30.07 1018 10 16 0.07 1.78
11:53 pm 23:53 Cloudy 56 13.3 54 12.2 93 93 ESE 3 6 30.04 1017 10 16 0.00 0.00

Powered by AerisWeather